Location: Hilton Head Island
(32.2163°N, 80.7526°W)
Time: 04:18:00
(UTC-04:00)

Transit 2A Rocket - Pass Details

Date: 13 February 2026
Orbit: 583 x 900 km, 66.7° (Epoch: 12 March)

Event Time Altitude Azimuth Distance (km) Brightness Sun altitude
Rises 15:38:55 0° 165° (SSE) 3,401 8.6 27.2°
Reaches altitude 10° 15:42:01 10° 148° (SSE) 2,509 7.8 26.7°
Maximum altitude 15:46:02 19° 104° (ESE) 1,971 6.9 26.0°
Drops below altitude 10° 15:50:08 10° 61° (ENE) 2,573 7.2 25.3°
Sets 15:53:21 0° 45° (NE) 3,518 7.9 24.8°
